This is the latest recevied weather packets stored in our database for station/object BM3JAS-9. If no packets are shown the sender has not sent any weather packets the latest 10 day(s).
| Time | Temp. | Humidity | Pressure | Rain* | Wind** | Luminosity | Snow |
|---|---|---|---|---|---|---|---|
| 1777878479 | 25.56° C | 64% | 0 hPa | - | - | - | - |
| 1777877279 | 25.56° C | 63% | 0 hPa | - | - | - | - |
| 1777876680 | 26.11° C | 63% | 0 hPa | - | - | - | - |
| 1777876080 | 26.11° C | 64% | 0 hPa | - | - | - | - |
| 1777875479 | 26.11° C | 65% | 0 hPa | - | - | - | - |
| 1777874879 | 25.56° C | 65% | 0 hPa | - | - | - | - |
| 1777874280 | 26.11° C | 64% | 0 hPa | - | - | - | - |
| 1777873680 | 26.11° C | 63% | 0 hPa | - | - | - | - |
| 1777873080 | 26.11° C | 63% | 0 hPa | - | - | - | - |
| 1777872480 | 26.67° C | 62% | 0 hPa | - | - | - | - |
| 1777871880 | 26.67° C | 62% | 0 hPa | - | - | - | - |
| 1777870680 | 27.78° C | 59% | 0 hPa | - | - | - | - |
| 1777870080 | 28.33° C | 60% | 0 hPa | - | - | - | - |
| 1777869480 | 28.33° C | 58% | 0 hPa | - | - | - | - |
| 1777868880 | 28.89° C | 60% | 0 hPa | - | - | - | - |
| 1777868280 | 28.33° C | 61% | 0 hPa | - | - | - | - |
| 1777867680 | 27.22° C | 61% | 0 hPa | - | - | - | - |
| 1777867080 | 26.67° C | 61% | 0 hPa | - | - | - | - |
| 1777866480 | 26.67° C | 59% | 0 hPa | - | - | - | - |
| 1777865880 | 26.11° C | 59% | 0 hPa | - | - | - | - |
| 1777865280 | 26.11° C | 60% | 0 hPa | - | - | - | - |
| 1777864080 | 25.56° C | 62% | 0 hPa | - | - | - | - |
| 1777863480 | 25° C | 61% | 0 hPa | - | - | - | - |
| 1777862880 | 25° C | 62% | 0 hPa | - | - | - | - |
| 1777862280 | 25.56° C | 63% | 0 hPa | - | - | - | - |
* Rain since midnight (hover to see other rain measurements)
** Current wind speed in m/s (hover to see current wind gust speed)